Home > Weather > Bremerhaven > Past weeks

Flag for Germany Weather for the Past 2 Weeks in Bremerhaven, Bremen, Germany

Now
41 °F

Scattered clouds.


Feels Like: 32 °F
Forecast: 37 / 42 °F
Wind: 20 mph from Southwest

Location: Nordholz

Current Time: Feb 9, 2016 at 9:24:00 AM

Latest Report: Feb 9, 2016 at 8:20 AM


Visibility: N/A

Pressure: 29.21 "Hg

Humidity: 81%

Dew point: 36 °F

Location of BremerhavenLocation

Historic Weather in Bremerhaven — Graph

°F

Bremerhaven Temperature Yesterday

Maximum temperature yesterday: 48 °F (at 10:51 AM)
Minimum temperature yesterday: 43 °F (at 12:20 AM)
Average temperature yesterday: 45 °F

High & Low Weather Summary for the Past Weeks

 TemperatureHumidityPressure
High52 °F (Jan 25, 2:20 PM)100% (Jan 25, 7:20 AM)30.24 "Hg (Jan 25, 7:20 AM)
Low36 °F (Jan 30, 10:20 PM)66% (Feb 2, 10:20 AM)29.03 "Hg (Feb 8, 7:20 PM)
Average44 °F87%29.76 "Hg
* Reported Jan 25 7:20 AM — Feb 9 7:20 AM, Bremerhaven, Weather by CustomWeather, © 2016

Note: Actual official high and low records may vary slightly from our data, if they occured in-between our weather recording intervals... More about our weather records

Advertising

Bremerhaven Weather History for the Previous 24 Hours

 ConditionsComfort  
Time TempWeatherWind HumidityBarometerVisibility
7:20 AM
Tue, Feb 9
43 °FPartly cloudy.22 mph81%29.18 "HgN/A
6:20 AM43 °FLight rain. Partly cloudy.25 mph87%29.18 "HgN/A
5:20 AM43 °FLight rain. Passing clouds.23 mph93%29.18 "HgN/A
4:20 AM43 °FRain. Partly cloudy.29 mph93%29.15 "HgN/A
3:20 AM45 °FPassing clouds.22 mph87%29.15 "HgN/A
2:20 AM45 °FSprinkles. Partly cloudy.24 mph87%29.12 "HgN/A
1:20 AM43 °FMostly cloudy.24 mph93%29.09 "HgN/A
12:20 AM43 °FMostly cloudy.23 mph93%29.06 "HgN/A
11:58 PM
Mon, Feb 8
43 °FPartly cloudy.22 mph93%29.06 "HgN/A
11:20 PM43 °FRain. Mostly cloudy.22 mph93%29.06 "Hg5 mi
11:01 PM43 °FLight rain. Mostly cloudy.24 mph93%29.03 "HgN/A
10:20 PM43 °FRain. Mostly cloudy.24 mph93%29.03 "Hg4 mi
9:20 PM43 °FLight rain. Mostly cloudy.23 mph93%29.03 "HgN/A
8:54 PM43 °FRain. Passing clouds.23 mph93%29.03 "Hg5 mi
8:20 PM43 °FLight rain. Passing clouds.26 mph93%29.03 "Hg5 mi
7:20 PM46 °FPassing clouds.21 mph76%29.03 "HgN/A
6:20 PM46 °FPassing clouds.20 mph71%29.06 "HgN/A
5:20 PM46 °FPassing clouds.18 mph76%29.06 "HgN/A
4:48 PM45 °FPartly sunny.18 mph81%29.06 "HgN/A
4:20 PM46 °FScattered showers. Scattered clouds.15 mph76%29.06 "HgN/A
3:20 PM46 °FScattered showers. Broken clouds.15 mph76%29.06 "HgN/A
2:55 PM46 °FPartly sunny.20 mph76%29.06 "HgN/A
2:20 PM48 °FScattered clouds.21 mph71%29.06 "HgN/A
1:50 PM45 °FScattered clouds.18 mph93%29.06 "HgN/A
1:20 PM48 °FSprinkles. Partly sunny.23 mph71%29.06 "Hg3 mi
12:20 PM48 °FPartly sunny.22 mph76%29.06 "HgN/A
11:20 AM48 °FPartly sunny.23 mph76%29.09 "HgN/A
10:51 AM48 °FPartly sunny.25 mph76%29.09 "HgN/A
10:20 AM46 °FPartly sunny.23 mph82%29.06 "HgN/A
9:20 AM46 °FPartly sunny.21 mph82%29.09 "HgN/A
Weather by CustomWeather, © 2016

See weather overviewHow to use our weather pages